Weather Roundup
Issued by NWS Chicago, IL

Home | Current Version | Previous Version | Graphics & Text | Print | Product List | Glossary On
Versions: 1 2 3 4 5 6 7 8 9 10 11 12 13 14 15 16 17 18 19 20 21 22 23 24 25 26 27 28 29 30 31 32 33 34 35 36 37 38 39 40 41 42 43 44 45 46 47 48 49 50
000
NZUS59 KLOT 210906
HRRLOT

CHICAGO AREA WEATHER ROUNDUP
NATIONAL WEATHER SERVICE CHICAGO/ROMEOVILLE IL
400 AM CDT THU AUG 21 2014

NOTE: "FAIR" INDICATES FEW OR NO CLOUDS BELOW 12,000 FEET WITH NO
SIGNIFICANT WEATHER AND/OR OBSTRUCTIONS TO VISIBILITY.

* THESE STATIONS ARE NOT UNDER NWS QUALITY CONTROL. THEY ALSO MAY NOT
  REPORT WEATHER SUCH AS PRECIPITATION OR FOG.

ILZ005-006-012>014-019>023-211000-
NORTHEAST ILLINOIS

CITY           SKY/WX    TMP DP  RH WIND       PRES   REMARKS
OHARE          CLOUDY    71  65  81 CALM      29.94F
MIDWAY         MOCLDY    73  70  90 SW5       29.93F
AURORA         CLOUDY    70  67  90 SE3       29.94S
LANSING*       CLOUDY    69  67  93 SE3       29.96S
JOLIET*        CLOUDY    70  68  91 CALM      29.95S
WAUKEGAN       MOCLDY    67  65  93 CALM      29.93S FOG
DUPAGE AIRPORT MOCLDY    71  68  90 S3        29.95S
WHEELING       PTCLDY    74  66  76 SW3       29.95F
KANKAKEE*      MOCLDY    70  68  96 CALM      29.95F
MORRIS*        CLOUDY    71  71  99 SE3       29.94S
LEWIS AIRPORT* HVY RAIN  70  70 100 SE8       29.95S
NORTHERLY IS     N/A     72  67  84 S3          N/A
$$

WIZ051-052-058>065-066-070>072-211000-
SOUTHEAST WISCONSIN

CITY           SKY/WX    TMP DP  RH WIND       PRES   REMARKS
MILWAUKEE      MOCLDY    66  62  87 CALM      29.94S
KENOSHA*       PTCLDY    67  65  93 S5        29.95S
RACINE*        PTCLDY    66  63  90 CALM      29.95F
BURLINGTON     MOCLDY    62  62  99 SW6       29.96R FOG
WAUKESHA       PTCLDY    63  61  94 CALM      29.95S
WEST BEND      MOCLDY    61  59  94 CALM      29.95S FOG
$$

INZ001>003-010>013-019-020-211000-
NORTHWEST INDIANA

CITY           SKY/WX    TMP DP  RH WIND       PRES   REMARKS
GARY*          CLOUDY    71  68  92 SE5       29.95F THUNDER
MICHIGAN CITY* NOT AVBL
RENSSELAER*    NOT AVBL
VALPARAISO     LGT RAIN  68  66  93 W3        29.97F
$$

LMZ740>746-211000-
SOUTHERN LAKE MICHIGAN

STATION/POSITION TIME  SKY/WX   TEMP WIND        PRES    VSBY
                                AIR  DIR/SP/G
                 (UTC)          (F)  (DEG/KT/KT) (MB)    (MI)
HARRISON CRIB    0900            72  200/ 12/ 13   N/A
BURNHAM HARBOR   0900            72  170/  3/  8   N/A
CALUMET HARBOR   0900            70  170/  4/  6 1012.7F
BURNS HARBOR     0800            73  210/ 12/ 13   N/A
MICHIGAN CITY    0900            72  190/ 10/ 14   N/A
$$

ABBREVIATIONS USED IN REMARKS
   TC - TEMPERATURE IN CELSIUS
  WCI - WIND CHILL INDEX
   HX - HEAT INDEX
  VSB - VISIBILITY
$$



USA.gov is the U.S. government's official web portal to all federal, state and local government web resources and services.